Phoenix-Mesa Gateway Airport, AZ

6:43 PM MST on July 27, 2017 (GMT -0700)
Phoenix-Mesa Gateway Airport

Weather History for KIWA - September, 2013

Change the Weather History Date:

Monday, September 9, 2013

  Actual Average Record
Temperature  
Mean Temperature 76 °F -  
Max Temperature 80 °F 99 °F 105 °F (2004)
Min Temperature 71 °F 75 °F 71 °F (2001)
Cooling Degree Days 10    
Growing Degree Days 26 (Base 50)    
Moisture  
Dew Point 69 °F    
Average Humidity 78    
Maximum Humidity 94    
Minimum Humidity 61    
Precipitation  
Precipitation 0.00 in - - ()
Sea Level Pressure  
Sea Level Pressure 29.81 in    
Wind  
Wind Speed 3 mph (SSE)    
Max Wind Speed 12 mph    
Max Gust Speed -    
Visibility 10 miles    
Events Rain , Thunderstorm    
Averages and records for this station are not official NWS values.
T = Trace of Precipitation, MM = Missing Value Source: NWS Daily Summary

Daily Weather History Graph

Daily Weather History Graph

Search for Another Location

Airport or City:

Trip Planner

Search our weather history database for the weather conditions in past years. The results will help you decide how hot, cold, wet, or windy it might be!

Date:

Astronomy

Sep. 09, 2013 Rise Set
Actual Time 6:06 AM MST 6:40 PM MST
Civil Twilight 5:41 AM MST 7:05 PM MST
Nautical Twilight 5:11 AM MST 7:35 PM MST
Astronomical Twilight 4:41 AM MST 8:04 PM MST
Moon 10:16 AM MST (9/9) 9:16 PM MST (9/9)
Length of Visible Light 13h 24m
Length of Day
12h 34m
Waxing Crescent, 20% of the Moon is Illuminated
Sep 9
Waxing Crescent
Sep 12
First Quarter
Sep 19
Full
Sep 26
Last Quarter
Oct 4
New

Hourly Weather History & Observations

Time (MST) Temp. Heat Index Dew Point Humidity Pressure Visibility Wind Dir Wind Speed Gust Speed Precip Events Conditions
12:15 AM 78.8 °F - 69.8 °F 74% 29.82 in 10.0 mi Calm Calm - N/A   Clear
12:35 AM 78.8 °F - 69.8 °F 74% 29.82 in 10.0 mi ENE 3.5 mph - N/A   Clear
12:55 AM 78.8 °F - 69.8 °F 74% 29.82 in 10.0 mi East 3.5 mph - N/A   Clear
1:15 AM 78.8 °F - 69.8 °F 74% 29.82 in 10.0 mi Calm Calm - N/A   Clear
1:35 AM 78.8 °F - 71.6 °F 78% 29.82 in 10.0 mi Calm Calm - N/A   Clear
1:55 AM 78.8 °F - 71.6 °F 78% 29.82 in 10.0 mi SSE 5.8 mph - N/A   Scattered Clouds
2:15 AM 78.8 °F - 69.8 °F 74% 29.81 in 10.0 mi SE 4.6 mph - N/A   Mostly Cloudy
2:35 AM 78.8 °F - 69.8 °F 74% 29.80 in 10.0 mi SSE 4.6 mph - N/A Rain Light Rain
2:55 AM 78.8 °F - 69.8 °F 74% 29.80 in 10.0 mi Calm Calm - N/A   Clear
3:15 AM 78.8 °F - 69.8 °F 74% 29.79 in 10.0 mi Calm Calm - N/A   Clear
3:35 AM 78.8 °F - 69.8 °F 74% 29.80 in 10.0 mi Calm Calm - N/A   Clear
3:55 AM 78.8 °F - 69.8 °F 74% 29.80 in 10.0 mi Calm Calm - N/A   Scattered Clouds
4:15 AM 78.8 °F - 69.8 °F 74% 29.80 in 10.0 mi Calm Calm - N/A   Mostly Cloudy
4:35 AM 78.8 °F - 69.8 °F 74% 29.80 in 10.0 mi Calm Calm - N/A   Overcast
4:47 AM 78.8 °F - 71.6 °F 78% 29.80 in 10.0 mi ESE 4.6 mph - N/A Rain Rain
4:55 AM 78.8 °F - 69.8 °F 74% 29.80 in 10.0 mi SE 4.6 mph - N/A   Light Drizzle
5:15 AM 78.8 °F - 69.8 °F 74% 29.81 in 10.0 mi SE 4.6 mph - N/A   Scattered Clouds
5:35 AM 78.8 °F - 69.8 °F 74% 29.81 in 10.0 mi SE 4.6 mph - N/A Rain Light Rain
5:47 AM 78.8 °F - 69.8 °F 74% 29.82 in 10.0 mi SE 4.6 mph - N/A Rain Light Rain
6:47 AM 75.2 °F - 69.8 °F 83% 29.82 in 10.0 mi SSE 6.9 mph - N/A Rain Light Rain
7:47 AM 73.4 °F - 68.0 °F 83% 29.83 in 10.0 mi SSE 4.6 mph - N/A Rain Light Rain
8:55 AM 75.2 °F - 69.8 °F 83% 29.84 in 10.0 mi Calm Calm - N/A Rain Light Rain
9:47 AM 73.4 °F - 69.8 °F 88% 29.85 in 3.0 mi ESE 6.9 mph - N/A Rain Rain
10:22 AM 73.4 °F - 69.8 °F 88% 29.86 in 2.0 mi Variable 3.5 mph - N/A Rain Rain
10:47 AM 73.4 °F - 69.8 °F 88% 29.87 in 1.5 mi SW 4.6 mph - N/A Rain Rain
11:18 AM 71.6 °F - 69.8 °F 94% 29.87 in 1.0 mi SSW 11.5 mph - N/A Rain , Thunderstorm Heavy Thunderstorms and Rain
11:47 AM 71.6 °F - 69.8 °F 94% 29.86 in 1.0 mi WSW 5.8 mph - N/A Rain Light Rain
12:01 PM 73.4 °F - 71.6 °F 94% 29.86 in 8.0 mi SW 5.8 mph - N/A Rain Light Rain
12:50 PM 73.4 °F - 69.8 °F 88% 29.85 in 10.0 mi East 9.2 mph - N/A Rain Light Rain
1:47 PM 75.2 °F - 68.0 °F 78% 29.85 in 20.0 mi Variable 5.8 mph - N/A   Overcast
2:50 PM 78.8 °F - 69.8 °F 74% 29.80 in 20.0 mi Variable 6.9 mph - N/A   Mostly Cloudy
3:55 PM 80.6 °F 83.2 °F 68.0 °F 65% 29.78 in 35.0 mi Variable 3.5 mph - N/A   Scattered Clouds
4:50 PM 80.6 °F 82.7 °F 66.2 °F 61% 29.78 in 30.0 mi WNW 4.6 mph - N/A   Mostly Cloudy
5:47 PM 80.6 °F 83.2 °F 68.0 °F 65% 29.78 in 30.0 mi NW 5.8 mph - N/A   Scattered Clouds
6:47 PM 78.8 °F - 66.2 °F 65% 29.78 in 20.0 mi WNW 6.9 mph - N/A   Scattered Clouds
7:47 PM 78.8 °F - 68.0 °F 69% 29.77 in 20.0 mi ENE 3.5 mph - N/A   Mostly Cloudy
7:55 PM 78.8 °F - 68.0 °F 69% 29.77 in 10.0 mi Calm Calm - N/A   Clear
8:15 PM 78.8 °F - 69.8 °F 74% 29.77 in 10.0 mi Calm Calm - N/A   Clear
8:35 PM 78.8 °F - 69.8 °F 74% 29.78 in 10.0 mi Calm Calm - N/A   Clear
8:55 PM 75.2 °F - 69.8 °F 83% 29.79 in 10.0 mi West 5.8 mph - N/A   Clear
9:15 PM 75.2 °F - 68.0 °F 78% 29.79 in 10.0 mi West 4.6 mph - N/A   Clear
9:35 PM 75.2 °F - 66.2 °F 73% 29.79 in 10.0 mi NW 5.8 mph - N/A   Clear
9:47 PM 75.2 °F - 68.0 °F 78% 29.79 in 20.0 mi NW 4.6 mph - N/A   Mostly Cloudy
9:55 PM 75.2 °F - 68.0 °F 78% 29.79 in 10.0 mi Calm Calm - N/A   Clear
10:15 PM 75.2 °F - 68.0 °F 78% 29.80 in 10.0 mi Calm Calm - N/A   Clear
10:35 PM 73.4 °F - 68.0 °F 83% 29.80 in 10.0 mi Calm Calm - N/A   Clear
10:47 PM 73.4 °F - 68.0 °F 83% 29.80 in 20.0 mi ESE 3.5 mph - N/A   Mostly Cloudy
10:55 PM 71.6 °F - 68.0 °F 88% 29.80 in 10.0 mi Calm Calm - N/A   Clear
11:15 PM 73.4 °F - 68.0 °F 83% 29.82 in 10.0 mi Calm Calm - N/A   Clear
11:35 PM 73.4 °F - 68.0 °F 83% 29.83 in 10.0 mi Calm Calm - N/A   Clear
11:47 PM 73.4 °F - 68.0 °F 83% 29.83 in 20.0 mi Variable 3.5 mph - N/A   Mostly Cloudy
11:55 PM 73.4 °F - 68.0 °F 83% 29.83 in 10.0 mi WSW 3.5 mph - N/A   Clear